TIANWANG 1B (TW-1B)
1 40927U 15051C   19329.54137318  .00017301  00000-0  23744-3 0  9995
2 40927  97.1195  14.6942 0008428 138.6854 356.3648 15.57357477234868
TIANWANG 1A (TW-1A)
1 40928U 15051D   19329.48783166  .00003125  00000-0  76233-4 0  9998
2 40928  97.1314 357.2006 0009924 205.1216 290.8519 15.41572657233784
LAPAN A2
1 40931U 15052B   19324.69785557 -.00020420  00000-0 -29507-2 0  9996
2 40931   5.9963  31.2247 0013118 192.9224 166.9491 14.76583141224210
LQSAT
1 40958U 15057A   19328.78173881  .00000030  00000-0  12228-4 0  9992
2 40958  97.8819  33.5333 0019579  91.0673 269.2779 14.73097525222222
CHUBUSAT 2
1 41338U 16012B   19328.84747912  .00000337  00000-0  19412-4 0  9998
2 41338  31.0023 213.2763 0013956 240.0239 119.9011 15.00212524206831
CHUBUSAT 3
1 41339U 16012C   19329.06467038  .00000256  00000-0  13104-4 0  9994
2 41339  31.0118 209.7872 0013982 250.1393 109.7736 15.00383118206862
OUFTI-1
1 41458U 16025C   19328.78615993  .00002414  00000-0  12492-3 0  9999
2 41458  98.1009  63.7332 0165456 181.5213 178.5533 15.06231265196518
E-STAR-2
1 41459U 16025D   19329.37331143  .00001889  00000-0  99401-4 0  9999
2 41459  98.0997  63.9143 0166849 181.1707 178.9164 15.05838189196574
AAUSAT 4
1 41460U 16025E   19329.20939663  .00004695  00000-0  23420-3 0  9999
2 41460  98.0974  65.4095 0156773 173.0269 187.3271 15.07899620196709
NUSAT 1
1 41557U 16033B   19329.50673215  .00001529  00000-0  59339-4 0  9998
2 41557  97.4135  56.0635 0015366  93.2236 267.0762 15.27556216194480
BEESAT 4
1 41619U 16040W   19328.74739670 +.00001703 +00000-0 +74232-4 0  9991
2 41619 097.3492 027.8691 0011325 175.8889 184.2444 15.23487692178075
PRATHAM
1 41783U 16059A   19328.75027067  .00000068  00000-0  22382-4 0  9996
2 41783  98.0480  24.6521 0032429 242.6262 117.1639 14.63022319168800
ALSAT 1N
1 41789U 16059G   19329.42303019  .00000086  00000-0  25351-4 0  9990
2 41789  98.0509  27.6582 0027486 228.8376 131.0458 14.64278386169024
NAYIF 1
1 42017U 17008BX  19329.26808332  .00001829  00000-0  74112-4 0  9995
2 42017  97.3865  34.5962 0005447 341.5668  18.5372 15.25923873154254
MAX VALIER SAT
1 42778U 17036P   19328.68490461  .00001118  00000-0  51498-4 0  9998
2 42778  97.3354  22.6928 0013036  33.1347 327.0704 15.22266322134422
